#timestamp,LO_Frequency,Hit,StdDev 
1657846815.4,286047001.5,N
1657846835.3,286047002.4,N
1657846855.1,286047000.4,N
1657846875.9,286046998.1,N
1657846895.7,286047000.7,N
1657846915.5,286046999.4,N
1657846935.4,286046999.3,N
1657846955.2,286046998.6,N
1657846975.0,286047001.0,N
1657846975.9,286047001.0,N
1657846995.8,286046999.8,N
1657847015.6,286047000.6,N
1657847035.4,286047000.6,N
1657847055.3,286047000.2,N
1657847075.1,286046998.1,N
1657847095.9,286047000.3,N
1657847115.7,286047000.7,N
1657847135.5,286047000.5,N
1657847155.4,286047002.3,N
1657847175.2,286047001.4,N
1657847195.0,286047003.7,N
1657847196.0,286047003.7,N
1657847215.8,286047000.0,N
1657847235.6,286047002.0,N
1657847255.5,286047001.6,N
1657847275.3,286047003.7,N
1657847295.1,286047003.9,N
1657847315.9,286047004.3,N
1657847335.7,286047001.9,N
1657847355.6,286047002.7,N
1657847375.4,286046999.9,N
1657847395.2,286047000.3,N
1657847415.1,286047002.5,N
1657847416.0,286047002.5,N
1657847435.8,286047004.1,N
1657847455.6,286046998.8,N
1657847475.5,286046999.0,N
1657847495.3,286047001.2,N
1657847515.1,286047000.0,N
1657847535.9,286047000.8,N
1657847555.7,286046998.9,N
1657847575.6,286046998.2,N
1657847595.4,286046998.5,N
1657847615.2,286046998.1,N
1657847635.1,286047002.5,N
1657847636.0,286047002.5,N
1657847655.8,286047002.4,N
1657847675.7,286047002.7,N
1657847695.5,286047000.8,N
1657847715.3,286047000.8,N
1657847735.2,286046998.6,N
1657847755.0,286046999.0,N
1657847755.9,286046999.0,N
1657847775.7,286046998.8,N
1657847795.6,286047000.6,N
1657847815.4,286047000.7,N
1657847835.3,286047000.3,N
1657847855.1,286047000.0,N
1657847856.0,286047000.0,N
1657847875.8,286047003.8,N
1657847895.7,286047001.4,N
1657847915.5,286047002.3,N
1657847935.3,286047002.0,N
1657847955.2,286047002.4,N
1657847975.0,286047000.9,N
1657847975.9,286047000.9,N
1657847995.8,286046998.2,N
1657848015.6,286047001.2,N
1657848035.4,286046999.1,N
1657848055.3,286046997.0,N
1657848075.1,286046996.6,N
1657848095.9,286046999.3,N
1657848115.7,286046998.6,N
1657848135.5,286047001.0,N
1657848155.4,286046998.6,N
1657848175.2,286046998.5,N
1657848195.0,286047004.4,N
1657848195.9,286047004.4,N
1657848215.8,286047000.1,N
1657848235.6,286046999.9,N
1657848255.5,286046999.9,N
1657848275.3,286047004.3,N
1657848295.1,286047004.8,N
1657848315.9,286047003.1,N
1657848335.7,286047006.0,N
1657848355.5,286047003.9,N
1657848375.4,286047003.6,N
1657848395.2,286047002.0,N
1657848415.1,286046998.6,N
1657848416.0,286046998.6,N
1657848435.8,286047002.8,N
1657848455.6,286047002.6,N
1657848475.5,286047001.8,N
1657848495.3,286047005.5,N
1657848515.1,286047006.0,N
1657848535.9,286047005.6,N
1657848555.7,286047001.6,N
1657848575.6,286047000.6,N
1657848595.4,286047000.8,N
1657848615.2,286047000.7,N
1657848635.1,286047002.7,N
1657848636.0,286047002.7,N
1657848655.8,286047004.4,N
1657848675.7,286047001.5,N
1657848695.5,286047000.4,N
1657848715.3,286047001.2,N
1657848735.2,286046999.6,N
1657848755.0,286046998.9,N
1657848755.9,286046998.9,N
1657848775.7,286047001.0,N
1657848795.6,286047001.4,N
1657848815.4,286047004.1,N
1657848835.3,286047001.5,N
1657848855.1,286047002.1,N
1657848856.0,286047002.1,N
1657848875.8,286047000.0,N
1657848895.7,286047002.5,N
1657848915.5,286047004.6,N
1657848935.3,286047003.7,N
1657848955.2,286047003.6,N
1657848975.0,286047002.4,N
1657848975.9,286047002.4,N
1657848995.8,286047005.8,Y
1657849015.6,286047001.6,P
1657849035.4,286047001.4,P
1657849055.3,286047000.1,N
1657849075.1,286047002.0,N
1657849095.9,286047000.4,N
1657849115.7,286047000.2,N
1657849135.5,286046997.3,Y
1657849155.4,286046994.0,P
1657849175.2,286046995.9,N
1657849195.0,286046995.2,N
1657849196.0,286046995.2,N
1657849215.8,286046998.0,N
1657849235.6,286046995.3,N
1657849255.5,286046995.3,N
1657849275.3,286046999.6,N
1657849295.1,286047000.2,N
1657849315.9,286047000.3,N
1657849335.7,286046998.9,N
1657849355.6,286046999.1,N
1657849375.4,286046996.8,N
1657849395.2,286046999.2,N
1657849415.1,286046995.1,N
1657849416.0,286046995.1,N
1657849435.8,286046995.6,N
1657849455.6,286046995.3,N
1657849475.5,286046995.4,N
1657849495.3,286046995.7,N
1657849515.2,286046998.8,N
1657849535.9,286047000.3,N
1657849555.7,286047002.2,N
1657849575.6,286047000.5,N
1657849595.4,286046998.3,N
1657849615.2,286046999.6,N
1657849635.1,286047000.5,N
1657849636.0,286047000.5,N
1657849655.8,286047001.9,N
1657849675.7,286047004.2,N
1657849695.5,286047001.5,N
1657849715.3,286047001.5,N
1657849735.2,286047000.7,N
1657849755.0,286046999.0,N
1657849755.9,286046999.0,N
1657849775.7,286046997.8,N
1657849795.6,286046995.0,N
1657849815.4,286046996.7,N
1657849835.3,286046999.6,N
1657849855.1,286046999.5,N
1657849875.8,286046997.4,N
1657849895.7,286046995.0,N
1657849915.5,286046995.0,N
1657849935.3,286046995.0,N
1657849955.2,286046995.6,N
1657849975.0,286046996.6,N
1657849975.9,286046996.6,N
1657849995.8,286046999.3,N
1657850015.6,286046999.2,N
1657850035.4,286046997.8,N
1657850055.3,286046999.6,N
1657850075.1,286047000.5,N
1657850095.9,286046998.4,N
1657850115.7,286046996.9,N
1657850135.5,286046997.1,N
1657850155.4,286046997.7,N
1657850175.2,286046997.8,N
1657850195.0,286046998.8,N
1657850196.0,286046998.8,N
1657850215.8,286046998.6,N
1657850235.6,286047001.0,N
1657850255.5,286046997.7,N
1657850275.3,286046997.8,N
1657850295.1,286046999.0,N
1657850315.9,286046998.6,N
1657850335.7,286046998.0,N
1657850355.5,286046998.4,N
1657850375.4,286046997.5,N
1657850395.2,286046997.8,N
